sat.trackr.live / text

‹ back to catalog

STARLINK-36713

NORAD 67701 · 2026-025J

PAYLOAD ACTIVE UNKNOWN

§ Identity

Operator
Country
US
Launch date
2026-02-07
Launch site
AFWTR
Launch vehicle
Mass (kg)
RCS (m²)

Purposes: comms

External: N2YO · Heavens-Above · Gunter

§ Orbital elements

Epoch: 2026-05-25T01:35:28.307040Z

Period
93.91 min
Inclination
97.2833°
Eccentricity
0.0000674
Mean motion
15.33460862 rev/d
Perigee alt
465.0 km
Apogee alt
466.0 km
Semi-major
6,843.6 km
B*
5.9043e-4
RAAN
256.6212°
Arg perigee
91.9129°
Mean anomaly
268.2191°
Rev number
1,772

§ Raw data

STARLINK-367131 67701U 26025J   26145.06629985  .00019044  00000+0  59043-3 0  99902 67701  97.2833 256.6212 0000674  91.9129 268.2191 15.33460862 17721

JSON: /api/v1/satellites/67701 · /tle

For live sub-satellite position, see the globe view (requires WebGL).

§ Visibility from observer

Set your observer location to see the next 7 days of passes ≥ 10°. The values pass through the URL so the page stays shareable.

No JS? Fill the form by hand. The geolocation button needs JavaScript.